Погода в Ольгинской

Россия / Ростовская область     47°11′13″N   39°56′57″E
темп.,
°C
ветер,
м/с
пор.,
м/с
влажн.,
%
обл.,
%
осадки,
мм/ч
давл.,
гПа
погр.,
м
21 апреля, ср
ср2100:00+9юз81684100 0.0 10091111
03:00+10юз101685100 0.0 1010971
06:00+10юз7149099 0.0 1012778
09:00+11зюз7107991 0.0 1016865
12:00+15зюз795510 0.1 10171834
15:00+16з685311 0.1 10181664
18:00+14з47631 0.0 1018443
21:00+10зюз34785 0.0 102071
22 апреля, чт
чт2200:00+9зюз33845 0.0 102143
03:00+8юз228933 0.0 102130
06:00+8юз22905 0.0 102224
09:00+13юз237213 0.0 1023487
12:00+16ююз335657 0.0 10231454
15:00+18ююз3348100 0.0 10221950
18:00+15з346495 0.3 1022177
21:00+11з3473100 0.4 102366
23 апреля, пт
пт2300:00+10з1276100 0.4 102230
03:00+9юз337931 0.4 102241
06:00+8зюз34860 0.0 102390
09:00+13зюз34650 0.0 1023592
12:00+16зюз44524 0.0 10221532
15:00+17з55477 0.0 10211830
18:00+16з346345 0.0 1020229
21:00+12з2272100 0.0 102031
24 апреля, сб
сб2400:00+11зюз2377100 0.0 101864
03:00+10ююз3585100 0.6 1018128
06:00+9ююз49845 0.0 1017240
09:00+13зюз69695 0.0 1017833
12:00+14зюз81063100 0.1 10171491
15:00+14з695854 0.3 10171742
18:00+13зюз46604 0.0 1017540
21:00+9зюз6126711 0.1 1019413
25 апреля, вс
вс2500:00+8зсз37725 0.0 1020212
03:00+6зсз367121 0.0 1020128
06:00+5з3472100 0.0 1021128
09:00+8зсз3357100 0.0 1021895
12:00+12сз234699 0.0 10211602
15:00+13ссз1241100 0.0 10191890
18:00+12ссв1152100 0.0 1019180
21:00+9зсз2258100 0.0 101939